GFSNGP_prec_precacc_147.txt.gz
Total_Precipitation_Accumulation
0.57 0.68 0.58 1.03 1.03 1.05 0.83 0.75 0.94 0.96 0.55 0.52 0.45 0.84 0.89 0.61 0.57 0.49 0.69 0.51 0.41 0.38 0.42 0.66 0.87 0.90 0.94 0.89 0.97 1.11 1.28 1.10 0.81 0.87 0.81 0.68 0.68 0.76 0.73 0.61 0.77 1.31 1.36 1.48
1.39 0.87 0.39 0.87 1.05 0.89 0.61 0.70 0.74 0.47 0.49 0.43 0.33 0.50 0.89 0.74 0.70 0.49 0.51 0.74 0.60 0.50 0.39 0.39 0.40 0.48 0.55 0.55 0.60 0.61 0.64 0.67 0.72 0.60 0.65 0.66 0.51 0.53 0.37 0.32 0.41 0.61 0.73 0.84
0.62 0.45 0.25 0.61 0.82 0.48 0.28 0.24 0.25 0.24 0.33 0.29 0.33 0.43 0.60 0.71 0.73 0.56 0.52 0.65 0.76 0.81 0.73 0.73 0.62 0.59 0.56 0.58 0.54 0.56 0.56 0.54 0.48 0.59 0.62 0.68 0.63 0.60 0.65 0.71 0.66 0.57 0.60 0.63
0.50 0.31 0.70 0.90 0.38 0.23 0.21 0.30 0.16 0.16 0.23 0.29 0.37 0.46 0.45 0.53 0.84 0.73 0.70 0.87 0.91 0.91 0.88 0.88 0.74 0.69 0.77 0.80 0.79 0.68 0.63 0.60 0.53 0.52 0.64 0.79 0.75 0.76 0.95 0.95 0.81 0.73 0.70 0.62
0.54 0.42 0.45 0.25 0.07 0.07 0.17 0.20 0.15 0.23 0.49 0.46 0.55 0.63 0.75 1.00 1.20 1.21 0.93 0.67 0.71 0.89 0.99 0.73 0.75 0.68 0.73 0.75 0.91 0.97 0.95 0.90 0.86 0.73 0.79 0.92 1.09 1.14 0.98 0.92 0.97 0.96 0.95 0.99
0.58 0.52 0.43 0.19 0.02 0.00 0.03 0.18 0.08 0.17 0.64 0.63 0.64 0.56 0.62 0.82 1.32 1.18 0.76 0.39 0.29 0.27 0.40 0.73 0.72 0.56 0.58 0.67 0.62 0.83 1.08 1.11 1.22 1.34 1.48 1.58 1.52 1.40 1.47 1.46 1.35 1.29 1.26 1.19
0.56 0.60 0.21 0.02 0.04 0.03 0.26 0.38 0.10 0.07 0.22 0.64 0.84 1.02 1.04 0.98 1.09 0.85 0.61 0.19 0.06 0.03 0.02 0.05 0.29 0.48 0.44 0.45 0.64 0.67 0.72 1.02 1.09 1.27 1.38 1.32 1.49 1.59 1.73 1.97 2.09 1.97 1.84 1.57
0.64 0.65 0.33 0.05 0.16 0.32 0.33 0.15 0.09 0.07 0.05 0.14 0.44 0.52 0.42 0.66 0.64 0.48 0.29 0.06 0.00 0.00 0.00 0.01 0.01 0.05 0.19 0.29 0.35 0.43 0.50 0.46 0.58 0.67 0.71 0.92 0.95 1.03 1.16 1.21 1.35 1.46 1.49 1.60
0.23 0.27 0.31 0.24 0.27 0.27 0.14 0.18 0.16 0.10 0.15 0.27 0.31 0.29 0.37 0.32 0.16 0.06 0.04 0.02 0.01 0.01 0.02 0.02 0.01 0.02 0.04 0.07 0.10 0.13 0.18 0.24 0.30 0.37 0.50 0.55 0.63 0.71 0.69 0.72 0.72 0.77 0.83 0.91
0.53 0.64 0.39 0.48 0.36 0.13 0.11 0.21 0.22 0.16 0.11 0.11 0.10 0.11 0.15 0.13 0.07 0.04 0.03 0.02 0.02 0.02 0.01 0.01 0.01 0.01 0.04 0.03 0.04 0.05 0.07 0.08 0.10 0.18 0.26 0.27 0.35 0.42 0.52 0.60 0.64 0.71 0.77 0.80
0.94 0.81 0.63 0.72 0.73 0.57 0.40 0.18 0.15 0.17 0.14 0.11 0.08 0.08 0.08 0.07 0.06 0.04 0.01 0.01 0.01 0.02 0.02 0.00 0.02 0.02 0.04 0.05 0.05 0.06 0.06 0.09 0.10 0.09 0.11 0.12 0.18 0.34 0.42 0.68 0.81 0.89 1.07 1.15
1.32 1.04 0.91 0.90 0.50 0.36 0.31 0.27 0.15 0.07 0.04 0.03 0.02 0.01 0.02 0.04 0.04 0.02 0.03 0.03 0.02 0.02 0.01 0.02 0.02 0.03 0.03 0.02 0.04 0.07 0.11 0.13 0.21 0.22 0.21 0.21 0.24 0.33 0.47 0.53 0.54 0.57 0.71 0.83
0.60 0.92 0.88 0.73 0.47 0.26 0.17 0.09 0.03 0.01 0.01 0.02 0.03 0.04 0.08 0.08 0.06 0.06 0.04 0.03 0.03 0.03 0.04 0.04 0.05 0.07 0.13 0.18 0.16 0.18 0.21 0.23 0.21 0.23 0.30 0.35 0.40 0.45 0.60 0.80 0.87 1.02 1.14 1.22
0.40 0.47 0.37 0.23 0.15 0.07 0.02 0.01 0.02 0.01 0.01 0.02 0.08 0.09 0.07 0.07 0.06 0.04 0.04 0.02 0.02 0.02 0.04 0.06 0.13 0.26 0.40 0.54 0.62 0.74 0.87 0.98 0.99 1.07 1.05 0.99 0.95 0.95 0.98 1.02 1.12 1.37 1.39 1.25
0.22 0.19 0.20 0.14 0.05 0.03 0.02 0.03 0.04 0.07 0.13 0.17 0.13 0.07 0.04 0.04 0.04 0.04 0.03 0.02 0.02 0.03 0.07 0.12 0.19 0.31 0.40 0.47 0.60 0.70 0.77 0.90 0.95 1.00 1.02 0.97 0.93 0.92 0.90 0.87 0.81 0.84 0.78 0.71
0.03 0.05 0.09 0.09 0.07 0.04 0.04 0.06 0.13 0.29 0.25 0.15 0.08 0.04 0.04 0.05 0.05 0.05 0.06 0.05 0.06 0.11 0.13 0.15 0.21 0.32 0.25 0.22 0.28 0.38 0.53 0.68 0.65 0.72 0.81 0.79 0.79 0.76 0.75 0.72 0.70 0.68 0.63 0.67
0.01 0.02 0.04 0.10 0.13 0.15 0.22 0.29 0.31 0.27 0.17 0.09 0.09 0.08 0.06 0.05 0.06 0.09 0.12 0.14 0.13 0.17 0.18 0.22 0.42 0.44 0.45 0.52 0.58 0.76 0.83 0.87 0.82 0.76 0.79 0.78 0.72 0.64 0.59 0.55 0.52 0.50 0.55 0.53
0.02 0.03 0.07 0.15 0.31 0.32 0.22 0.16 0.13 0.12 0.14 0.16 0.16 0.14 0.17 0.20 0.27 0.32 0.37 0.31 0.26 0.31 0.51 0.70 0.75 0.75 0.76 0.78 0.74 0.75 0.73 0.72 0.66 0.65 0.62 0.58 0.55 0.50 0.52 0.51 0.47 0.42 0.36 0.26
0.12 0.19 0.23 0.26 0.23 0.18 0.15 0.15 0.17 0.18 0.21 0.24 0.28 0.39 0.45 0.54 0.56 0.67 0.70 0.66 0.74 0.76 1.12 0.98 0.84 0.74 0.74 0.73 0.57 0.53 0.51 0.46 0.41 0.43 0.43 0.41 0.40 0.40 0.38 0.32 0.28 0.25 0.24 0.26
0.21 0.17 0.15 0.13 0.10 0.11 0.15 0.21 0.24 0.32 0.45 0.46 0.55 0.70 0.84 1.05 1.03 1.02 0.89 0.91 0.98 1.03 0.96 0.78 0.55 0.44 0.42 0.37 0.29 0.27 0.29 0.31 0.30 0.30 0.28 0.25 0.24 0.23 0.20 0.20 0.25 0.29 0.28 0.26
0.44 0.41 0.41 0.41 0.48 0.55 0.62 0.73 0.68 0.88 1.13 1.07 0.90 0.98 0.97 1.09 1.01 0.94 0.76 0.72 0.83 0.63 0.47 0.39 0.32 0.28 0.21 0.18 0.16 0.16 0.17 0.18 0.19 0.21 0.23 0.26 0.25 0.26 0.31 0.31 0.28 0.28 0.28 0.26
0.62 0.62 0.72 0.75 0.68 0.84 0.96 0.93 0.78 0.79 0.80 0.78 0.77 0.76 0.66 0.75 0.66 0.56 0.52 0.48 0.52 0.38 0.27 0.22 0.19 0.13 0.10 0.10 0.12 0.13 0.14 0.18 0.21 0.22 0.26 0.30 0.35 0.32 0.28 0.24 0.23 0.23 0.23 0.23
0.64 0.60 0.60 0.62 0.57 0.63 0.68 0.65 0.67 0.55 0.56 0.58 0.58 0.58 0.48 0.49 0.46 0.35 0.37 0.35 0.23 0.19 0.15 0.14 0.11 0.07 0.07 0.11 0.13 0.16 0.18 0.23 0.26 0.29 0.30 0.26 0.27 0.25 0.23 0.20 0.19 0.20 0.21 0.21
0.60 0.58 0.61 0.61 0.45 0.31 0.40 0.57 0.45 0.42 0.37 0.36 0.34 0.31 0.23 0.20 0.26 0.20 0.17 0.15 0.10 0.09 0.08 0.08 0.08 0.06 0.09 0.16 0.19 0.22 0.25 0.26 0.21 0.22 0.23 0.21 0.21 0.21 0.21 0.19 0.17 0.17 0.18 0.19
0.53 0.53 0.54 0.49 0.38 0.44 0.39 0.38 0.26 0.25 0.17 0.16 0.15 0.13 0.10 0.09 0.17 0.15 0.08 0.07 0.07 0.10 0.12 0.10 0.10 0.09 0.15 0.19 0.21 0.21 0.23 0.24 0.20 0.22 0.22 0.21 0.21 0.21 0.21 0.20 0.20 0.20 0.20 0.18
0.42 0.40 0.42 0.38 0.37 0.32 0.27 0.18 0.17 0.17 0.12 0.13 0.18 0.15 0.12 0.09 0.09 0.09 0.10 0.10 0.09 0.10 0.17 0.18 0.17 0.17 0.22 0.23 0.24 0.23 0.24 0.20 0.18 0.20 0.22 0.21 0.21 0.21 0.21 0.19 0.19 0.20 0.21 0.22
0.36 0.34 0.26 0.20 0.19 0.18 0.16 0.17 0.16 0.17 0.17 0.16 0.18 0.17 0.14 0.12 0.11 0.11 0.12 0.15 0.16 0.18 0.22 0.23 0.21 0.19 0.20 0.21 0.21 0.20 0.20 0.19 0.19 0.19 0.20 0.21 0.22 0.22 0.22 0.22 0.22 0.21 0.19 0.20

GFSNGP_prec_precacc_153.txt.gz
Total_Precipitation_Accumulation
0.57 0.68 0.59 1.03 1.03 1.05 0.84 0.76 0.97 0.98 0.56 0.52 0.45 0.84 0.90 0.61 0.57 0.49 0.69 0.51 0.41 0.38 0.42 0.66 0.87 0.90 0.94 0.89 0.97 1.11 1.28 1.10 0.81 0.87 0.81 0.68 0.68 0.76 0.73 0.61 0.77 1.33 1.40 1.56
1.40 0.88 0.40 0.88 1.05 0.89 0.61 0.70 0.74 0.47 0.49 0.43 0.33 0.50 0.89 0.74 0.70 0.49 0.51 0.74 0.60 0.50 0.39 0.39 0.40 0.48 0.55 0.55 0.60 0.61 0.64 0.67 0.72 0.60 0.65 0.66 0.51 0.53 0.37 0.32 0.41 0.61 0.73 0.86
0.63 0.46 0.27 0.62 0.82 0.48 0.28 0.24 0.25 0.25 0.33 0.29 0.33 0.43 0.60 0.71 0.73 0.56 0.52 0.65 0.76 0.81 0.73 0.73 0.62 0.59 0.56 0.58 0.54 0.56 0.56 0.54 0.48 0.59 0.62 0.68 0.63 0.60 0.65 0.71 0.66 0.57 0.60 0.63
0.52 0.36 0.76 0.90 0.38 0.23 0.21 0.30 0.16 0.16 0.23 0.29 0.37 0.46 0.45 0.53 0.84 0.73 0.70 0.87 0.91 0.91 0.88 0.88 0.74 0.69 0.77 0.80 0.79 0.68 0.63 0.60 0.53 0.52 0.64 0.79 0.75 0.76 0.95 0.95 0.81 0.73 0.70 0.62
0.59 0.45 0.46 0.25 0.07 0.07 0.17 0.20 0.15 0.23 0.49 0.46 0.55 0.63 0.75 1.00 1.20 1.21 0.93 0.67 0.71 0.89 0.99 0.73 0.75 0.68 0.73 0.75 0.91 0.97 0.95 0.90 0.86 0.73 0.79 0.92 1.09 1.14 0.98 0.92 0.97 0.96 0.95 0.99
0.64 0.60 0.46 0.20 0.02 0.00 0.03 0.19 0.08 0.17 0.64 0.63 0.64 0.56 0.63 0.82 1.32 1.18 0.76 0.39 0.29 0.27 0.40 0.73 0.72 0.56 0.58 0.67 0.62 0.83 1.08 1.11 1.22 1.34 1.48 1.58 1.52 1.40 1.47 1.46 1.35 1.29 1.26 1.19
0.61 0.68 0.24 0.02 0.04 0.03 0.27 0.41 0.10 0.07 0.22 0.64 0.84 1.02 1.04 0.98 1.09 0.85 0.61 0.19 0.06 0.03 0.02 0.05 0.29 0.48 0.44 0.45 0.64 0.67 0.72 1.02 1.09 1.27 1.38 1.32 1.49 1.59 1.73 1.97 2.09 1.98 1.85 1.57
0.69 0.73 0.37 0.05 0.16 0.32 0.34 0.15 0.09 0.07 0.05 0.14 0.44 0.52 0.42 0.66 0.64 0.48 0.29 0.06 0.00 0.00 0.00 0.01 0.01 0.05 0.19 0.29 0.35 0.43 0.50 0.46 0.58 0.67 0.71 0.92 0.95 1.03 1.16 1.21 1.35 1.46 1.49 1.60
0.28 0.32 0.34 0.24 0.27 0.27 0.14 0.18 0.16 0.10 0.15 0.27 0.31 0.29 0.37 0.32 0.16 0.06 0.04 0.02 0.01 0.01 0.02 0.02 0.01 0.02 0.04 0.07 0.10 0.13 0.18 0.24 0.30 0.37 0.50 0.55 0.63 0.71 0.69 0.72 0.72 0.77 0.83 0.91
0.56 0.65 0.39 0.48 0.36 0.13 0.11 0.21 0.22 0.16 0.11 0.11 0.10 0.11 0.15 0.13 0.07 0.04 0.03 0.02 0.02 0.02 0.01 0.01 0.01 0.01 0.04 0.03 0.04 0.05 0.07 0.08 0.10 0.18 0.26 0.27 0.35 0.42 0.52 0.60 0.64 0.71 0.77 0.80
0.96 0.82 0.64 0.73 0.73 0.57 0.40 0.18 0.15 0.17 0.14 0.11 0.08 0.08 0.08 0.07 0.06 0.04 0.01 0.01 0.01 0.02 0.02 0.00 0.02 0.02 0.04 0.05 0.05 0.06 0.06 0.09 0.10 0.09 0.11 0.12 0.18 0.34 0.42 0.68 0.81 0.89 1.08 1.16
1.38 1.07 0.93 0.92 0.50 0.36 0.31 0.27 0.15 0.07 0.04 0.03 0.02 0.01 0.02 0.04 0.04 0.02 0.03 0.03 0.02 0.02 0.01 0.02 0.02 0.03 0.03 0.02 0.04 0.07 0.11 0.13 0.21 0.22 0.21 0.21 0.24 0.33 0.47 0.53 0.54 0.57 0.71 0.83
0.61 0.92 0.88 0.73 0.47 0.26 0.17 0.09 0.03 0.01 0.01 0.02 0.03 0.04 0.08 0.08 0.06 0.06 0.04 0.03 0.03 0.03 0.04 0.04 0.05 0.07 0.13 0.18 0.16 0.18 0.21 0.23 0.21 0.23 0.30 0.35 0.40 0.45 0.60 0.80 0.87 1.02 1.14 1.22
0.40 0.47 0.37 0.23 0.15 0.07 0.02 0.01 0.02 0.01 0.01 0.02 0.08 0.09 0.07 0.07 0.06 0.04 0.04 0.02 0.02 0.02 0.04 0.06 0.13 0.26 0.40 0.54 0.62 0.74 0.87 0.98 0.99 1.07 1.05 0.99 0.95 0.95 0.98 1.02 1.12 1.37 1.39 1.25
0.22 0.19 0.20 0.14 0.05 0.03 0.02 0.03 0.04 0.07 0.13 0.17 0.13 0.07 0.04 0.04 0.04 0.04 0.03 0.02 0.02 0.03 0.07 0.12 0.19 0.31 0.40 0.47 0.60 0.70 0.77 0.90 0.95 1.00 1.02 0.97 0.93 0.92 0.90 0.87 0.81 0.84 0.78 0.72
0.03 0.05 0.09 0.09 0.07 0.04 0.04 0.06 0.13 0.29 0.25 0.15 0.08 0.04 0.04 0.05 0.05 0.05 0.06 0.05 0.06 0.11 0.13 0.15 0.21 0.32 0.25 0.22 0.28 0.38 0.53 0.68 0.65 0.72 0.81 0.79 0.79 0.76 0.75 0.72 0.70 0.68 0.63 0.67
0.01 0.02 0.04 0.10 0.13 0.15 0.22 0.29 0.31 0.27 0.17 0.09 0.09 0.08 0.06 0.05 0.06 0.09 0.12 0.14 0.13 0.17 0.18 0.22 0.42 0.44 0.45 0.52 0.58 0.76 0.83 0.87 0.82 0.76 0.79 0.78 0.72 0.65 0.59 0.55 0.53 0.51 0.56 0.55
0.02 0.03 0.07 0.15 0.31 0.32 0.22 0.16 0.13 0.12 0.14 0.16 0.16 0.14 0.17 0.20 0.27 0.32 0.37 0.31 0.26 0.31 0.51 0.70 0.75 0.75 0.76 0.78 0.74 0.75 0.73 0.72 0.66 0.65 0.62 0.59 0.55 0.51 0.52 0.52 0.48 0.42 0.37 0.28
0.12 0.19 0.23 0.26 0.23 0.18 0.15 0.15 0.17 0.18 0.21 0.24 0.28 0.39 0.45 0.54 0.56 0.67 0.70 0.66 0.74 0.76 1.12 0.98 0.84 0.74 0.74 0.73 0.57 0.53 0.51 0.46 0.41 0.43 0.43 0.41 0.40 0.41 0.39 0.33 0.29 0.26 0.26 0.27
0.21 0.17 0.15 0.13 0.10 0.11 0.15 0.21 0.24 0.32 0.45 0.46 0.55 0.70 0.84 1.05 1.03 1.02 0.89 0.91 0.98 1.03 0.96 0.78 0.55 0.44 0.42 0.37 0.29 0.27 0.29 0.32 0.30 0.30 0.28 0.26 0.25 0.24 0.22 0.21 0.26 0.30 0.29 0.27
0.44 0.41 0.41 0.41 0.48 0.55 0.62 0.73 0.68 0.88 1.13 1.07 0.90 0.98 0.97 1.09 1.01 0.94 0.76 0.72 0.83 0.63 0.47 0.39 0.32 0.28 0.21 0.18 0.16 0.16 0.17 0.18 0.19 0.21 0.24 0.27 0.26 0.27 0.32 0.32 0.30 0.29 0.29 0.26
0.62 0.62 0.72 0.75 0.68 0.84 0.96 0.93 0.78 0.79 0.80 0.78 0.77 0.76 0.66 0.75 0.66 0.56 0.52 0.48 0.52 0.38 0.27 0.22 0.19 0.13 0.10 0.10 0.12 0.14 0.14 0.18 0.22 0.24 0.27 0.31 0.36 0.34 0.29 0.25 0.24 0.24 0.23 0.23
0.64 0.60 0.60 0.62 0.57 0.63 0.68 0.65 0.67 0.55 0.56 0.58 0.58 0.58 0.48 0.49 0.46 0.35 0.37 0.35 0.23 0.19 0.15 0.14 0.11 0.07 0.07 0.11 0.14 0.16 0.19 0.24 0.28 0.30 0.31 0.28 0.27 0.26 0.24 0.21 0.19 0.20 0.21 0.21
0.60 0.58 0.61 0.61 0.45 0.31 0.40 0.57 0.45 0.42 0.37 0.36 0.34 0.31 0.23 0.20 0.26 0.20 0.17 0.15 0.10 0.09 0.08 0.08 0.08 0.06 0.09 0.18 0.20 0.23 0.27 0.28 0.23 0.24 0.24 0.22 0.22 0.21 0.21 0.19 0.17 0.17 0.18 0.19
0.53 0.53 0.54 0.49 0.38 0.44 0.39 0.38 0.26 0.25 0.17 0.16 0.15 0.13 0.10 0.09 0.17 0.15 0.08 0.07 0.07 0.10 0.13 0.10 0.10 0.09 0.17 0.22 0.23 0.23 0.25 0.26 0.22 0.23 0.22 0.21 0.21 0.21 0.21 0.20 0.20 0.20 0.20 0.18
0.42 0.40 0.42 0.38 0.37 0.32 0.27 0.18 0.17 0.17 0.12 0.13 0.18 0.16 0.13 0.10 0.10 0.10 0.11 0.10 0.10 0.11 0.18 0.20 0.20 0.20 0.24 0.25 0.25 0.24 0.24 0.20 0.18 0.20 0.22 0.21 0.21 0.21 0.21 0.19 0.19 0.20 0.21 0.22
0.36 0.34 0.26 0.20 0.19 0.18 0.16 0.17 0.16 0.18 0.18 0.17 0.20 0.20 0.16 0.15 0.13 0.13 0.13 0.16 0.18 0.20 0.25 0.25 0.23 0.21 0.21 0.22 0.21 0.20 0.20 0.19 0.19 0.19 0.20 0.21 0.22 0.22 0.22 0.22 0.22 0.21 0.19 0.20

GFSNGP_prec_precacc_156.txt.gz
Total_Precipitation_Accumulation
0.57 0.68 0.59 1.03 1.03 1.05 0.84 0.77 1.00 1.00 0.57 0.52 0.45 0.84 0.90 0.62 0.58 0.49 0.69 0.51 0.41 0.38 0.43 0.67 0.87 0.90 0.94 0.89 0.97 1.11 1.28 1.10 0.81 0.87 0.81 0.68 0.68 0.76 0.73 0.61 0.77 1.33 1.40 1.56
1.40 0.88 0.40 0.88 1.05 0.89 0.61 0.70 0.74 0.47 0.49 0.43 0.33 0.50 0.89 0.75 0.70 0.49 0.51 0.74 0.60 0.50 0.39 0.39 0.40 0.48 0.55 0.55 0.60 0.61 0.64 0.67 0.72 0.60 0.65 0.66 0.51 0.53 0.37 0.32 0.41 0.61 0.73 0.86
0.63 0.46 0.27 0.62 0.82 0.48 0.28 0.24 0.25 0.25 0.33 0.29 0.33 0.44 0.61 0.71 0.73 0.56 0.52 0.65 0.76 0.81 0.73 0.73 0.62 0.59 0.56 0.58 0.54 0.56 0.56 0.54 0.48 0.59 0.62 0.68 0.63 0.60 0.65 0.71 0.66 0.57 0.60 0.63
0.54 0.36 0.77 0.90 0.38 0.23 0.21 0.30 0.17 0.16 0.23 0.29 0.39 0.48 0.45 0.53 0.84 0.73 0.70 0.87 0.91 0.91 0.88 0.88 0.74 0.69 0.77 0.80 0.79 0.68 0.63 0.60 0.53 0.52 0.64 0.79 0.75 0.76 0.95 0.95 0.81 0.73 0.70 0.62
0.62 0.47 0.47 0.25 0.07 0.08 0.18 0.22 0.15 0.23 0.49 0.46 0.56 0.63 0.75 1.00 1.20 1.21 0.93 0.67 0.71 0.89 0.99 0.73 0.75 0.68 0.73 0.75 0.91 0.97 0.95 0.90 0.86 0.73 0.79 0.92 1.09 1.14 0.98 0.92 0.97 0.96 0.95 0.99
0.66 0.62 0.47 0.21 0.07 0.01 0.03 0.20 0.08 0.17 0.64 0.63 0.64 0.56 0.63 0.82 1.32 1.18 0.76 0.39 0.29 0.27 0.40 0.73 0.72 0.56 0.58 0.67 0.62 0.83 1.08 1.11 1.22 1.34 1.48 1.58 1.52 1.40 1.47 1.46 1.35 1.29 1.26 1.19
0.63 0.71 0.24 0.02 0.06 0.05 0.28 0.43 0.10 0.07 0.22 0.64 0.84 1.02 1.04 0.98 1.09 0.85 0.61 0.19 0.06 0.03 0.02 0.05 0.29 0.48 0.44 0.45 0.64 0.67 0.72 1.02 1.09 1.27 1.38 1.32 1.49 1.59 1.73 1.97 2.09 1.98 1.85 1.57
0.71 0.76 0.38 0.05 0.17 0.35 0.36 0.15 0.09 0.07 0.05 0.14 0.44 0.52 0.42 0.66 0.64 0.48 0.29 0.06 0.00 0.00 0.00 0.01 0.01 0.05 0.19 0.29 0.35 0.43 0.50 0.46 0.58 0.67 0.71 0.92 0.95 1.03 1.16 1.21 1.35 1.46 1.49 1.60
0.30 0.35 0.38 0.26 0.28 0.27 0.14 0.18 0.16 0.10 0.15 0.27 0.31 0.29 0.37 0.32 0.16 0.06 0.04 0.02 0.01 0.01 0.02 0.02 0.01 0.02 0.04 0.07 0.10 0.13 0.18 0.24 0.30 0.37 0.50 0.55 0.63 0.71 0.69 0.72 0.72 0.77 0.83 0.91
0.61 0.67 0.46 0.53 0.36 0.13 0.11 0.21 0.22 0.16 0.11 0.11 0.10 0.11 0.15 0.13 0.07 0.04 0.03 0.02 0.02 0.02 0.01 0.01 0.01 0.01 0.04 0.03 0.04 0.05 0.07 0.08 0.10 0.18 0.26 0.27 0.35 0.42 0.52 0.60 0.64 0.71 0.77 0.80
1.01 0.84 0.65 0.74 0.73 0.57 0.40 0.18 0.15 0.17 0.14 0.11 0.08 0.08 0.08 0.07 0.06 0.04 0.01 0.01 0.01 0.02 0.02 0.00 0.02 0.02 0.04 0.05 0.05 0.06 0.06 0.09 0.10 0.09 0.11 0.12 0.18 0.34 0.42 0.68 0.81 0.89 1.08 1.16
1.43 1.10 0.94 0.93 0.51 0.36 0.31 0.27 0.15 0.07 0.04 0.03 0.02 0.01 0.02 0.04 0.04 0.02 0.03 0.03 0.02 0.02 0.01 0.02 0.02 0.03 0.03 0.02 0.04 0.07 0.11 0.13 0.21 0.22 0.21 0.21 0.24 0.33 0.47 0.53 0.54 0.57 0.71 0.83
0.63 0.92 0.88 0.73 0.47 0.26 0.17 0.09 0.03 0.01 0.01 0.02 0.03 0.04 0.08 0.08 0.06 0.06 0.04 0.03 0.03 0.03 0.04 0.04 0.05 0.07 0.13 0.18 0.16 0.18 0.21 0.23 0.21 0.23 0.30 0.35 0.40 0.45 0.60 0.80 0.87 1.02 1.14 1.22
0.41 0.47 0.37 0.23 0.15 0.07 0.02 0.01 0.02 0.01 0.01 0.02 0.08 0.09 0.07 0.07 0.06 0.04 0.04 0.02 0.02 0.02 0.04 0.06 0.13 0.26 0.40 0.54 0.62 0.74 0.87 0.98 0.99 1.07 1.05 0.99 0.95 0.95 0.98 1.03 1.13 1.38 1.39 1.25
0.22 0.19 0.20 0.14 0.05 0.03 0.02 0.03 0.04 0.07 0.13 0.17 0.13 0.07 0.04 0.04 0.04 0.04 0.03 0.02 0.02 0.03 0.07 0.12 0.19 0.31 0.40 0.47 0.60 0.70 0.77 0.90 0.95 1.00 1.02 0.97 0.93 0.92 0.90 0.87 0.81 0.84 0.78 0.72
0.03 0.05 0.09 0.09 0.07 0.04 0.04 0.06 0.13 0.29 0.25 0.15 0.08 0.04 0.04 0.05 0.05 0.05 0.06 0.05 0.06 0.11 0.13 0.15 0.21 0.32 0.25 0.22 0.28 0.38 0.53 0.68 0.65 0.72 0.81 0.79 0.79 0.76 0.75 0.72 0.70 0.68 0.64 0.68
0.01 0.02 0.04 0.10 0.13 0.15 0.22 0.29 0.31 0.27 0.17 0.09 0.09 0.08 0.06 0.05 0.06 0.09 0.12 0.14 0.13 0.17 0.18 0.22 0.42 0.44 0.45 0.52 0.58 0.76 0.83 0.87 0.82 0.76 0.79 0.78 0.72 0.65 0.59 0.55 0.53 0.51 0.57 0.56
0.02 0.03 0.07 0.15 0.31 0.32 0.22 0.16 0.13 0.12 0.14 0.16 0.16 0.14 0.17 0.20 0.27 0.32 0.37 0.31 0.26 0.31 0.51 0.70 0.75 0.75 0.76 0.78 0.74 0.75 0.73 0.72 0.66 0.65 0.62 0.59 0.55 0.51 0.52 0.52 0.48 0.43 0.38 0.29
0.12 0.19 0.23 0.26 0.23 0.18 0.15 0.15 0.17 0.18 0.21 0.24 0.28 0.39 0.45 0.54 0.56 0.67 0.70 0.66 0.74 0.76 1.12 0.98 0.84 0.74 0.74 0.73 0.57 0.53 0.51 0.46 0.42 0.43 0.43 0.42 0.40 0.41 0.40 0.34 0.29 0.26 0.26 0.27
0.21 0.17 0.15 0.13 0.10 0.11 0.15 0.21 0.24 0.32 0.45 0.46 0.55 0.70 0.84 1.05 1.03 1.02 0.89 0.91 0.98 1.03 0.96 0.78 0.55 0.44 0.42 0.37 0.29 0.27 0.29 0.32 0.30 0.31 0.28 0.26 0.25 0.25 0.22 0.22 0.26 0.31 0.29 0.27
0.44 0.41 0.41 0.41 0.48 0.55 0.62 0.73 0.68 0.88 1.13 1.07 0.90 0.98 0.97 1.09 1.01 0.94 0.76 0.72 0.83 0.63 0.47 0.39 0.32 0.28 0.21 0.18 0.16 0.16 0.17 0.18 0.20 0.21 0.24 0.28 0.27 0.28 0.33 0.33 0.30 0.29 0.29 0.27
0.62 0.62 0.72 0.75 0.68 0.84 0.96 0.93 0.78 0.79 0.80 0.78 0.77 0.76 0.66 0.75 0.66 0.56 0.52 0.48 0.52 0.38 0.27 0.22 0.19 0.13 0.10 0.10 0.12 0.14 0.14 0.18 0.23 0.24 0.28 0.32 0.37 0.34 0.30 0.25 0.24 0.24 0.23 0.23
0.64 0.60 0.60 0.62 0.57 0.63 0.68 0.65 0.67 0.55 0.56 0.58 0.58 0.58 0.48 0.49 0.46 0.35 0.37 0.35 0.23 0.19 0.15 0.14 0.11 0.07 0.07 0.12 0.14 0.17 0.20 0.25 0.28 0.31 0.31 0.28 0.28 0.27 0.24 0.21 0.19 0.20 0.21 0.21
0.60 0.58 0.61 0.61 0.45 0.31 0.40 0.57 0.45 0.42 0.37 0.36 0.34 0.31 0.23 0.20 0.26 0.20 0.17 0.15 0.10 0.09 0.08 0.08 0.08 0.06 0.09 0.19 0.21 0.24 0.28 0.29 0.23 0.24 0.24 0.22 0.22 0.21 0.21 0.19 0.17 0.17 0.18 0.19
0.53 0.53 0.54 0.49 0.38 0.44 0.39 0.38 0.26 0.25 0.17 0.16 0.15 0.13 0.10 0.09 0.17 0.15 0.08 0.07 0.07 0.11 0.13 0.10 0.10 0.10 0.19 0.23 0.24 0.24 0.25 0.26 0.22 0.23 0.22 0.22 0.21 0.21 0.21 0.20 0.20 0.20 0.20 0.19
0.42 0.40 0.42 0.38 0.37 0.32 0.27 0.18 0.17 0.17 0.12 0.13 0.18 0.16 0.13 0.11 0.11 0.10 0.11 0.11 0.11 0.11 0.18 0.21 0.21 0.21 0.25 0.25 0.26 0.25 0.25 0.20 0.18 0.20 0.22 0.21 0.21 0.21 0.21 0.19 0.19 0.20 0.22 0.22
0.36 0.34 0.26 0.20 0.19 0.18 0.16 0.17 0.16 0.18 0.18 0.18 0.22 0.21 0.18 0.16 0.15 0.14 0.16 0.18 0.19 0.21 0.26 0.27 0.23 0.21 0.22 0.22 0.22 0.20 0.20 0.19 0.19 0.19 0.20 0.21 0.22 0.22 0.22 0.22 0.22 0.21 0.20 0.20

GFSNGP_prec_precacc_159.txt.gz
Total_Precipitation_Accumulation
0.57 0.68 0.59 1.03 1.03 1.05 0.84 0.77 1.00 1.00 0.57 0.52 0.45 0.84 0.90 0.64 0.63 0.52 0.70 0.51 0.41 0.38 0.43 0.67 0.87 0.90 0.94 0.89 0.97 1.11 1.28 1.10 0.81 0.87 0.81 0.68 0.68 0.76 0.73 0.61 0.77 1.33 1.40 1.56
1.40 0.88 0.40 0.88 1.05 0.89 0.61 0.70 0.74 0.47 0.49 0.43 0.33 0.51 0.90 0.80 0.75 0.50 0.51 0.74 0.60 0.50 0.39 0.39 0.40 0.48 0.55 0.55 0.60 0.61 0.64 0.67 0.72 0.60 0.65 0.66 0.51 0.53 0.37 0.32 0.41 0.61 0.73 0.86
0.63 0.46 0.28 0.62 0.82 0.48 0.28 0.24 0.25 0.25 0.33 0.29 0.34 0.46 0.62 0.72 0.74 0.56 0.52 0.65 0.76 0.81 0.73 0.73 0.62 0.59 0.56 0.58 0.54 0.56 0.56 0.54 0.48 0.59 0.62 0.68 0.63 0.60 0.65 0.71 0.66 0.57 0.60 0.63
0.54 0.37 0.78 0.90 0.38 0.23 0.21 0.30 0.17 0.17 0.24 0.29 0.40 0.50 0.46 0.53 0.84 0.73 0.70 0.87 0.91 0.91 0.88 0.88 0.74 0.69 0.77 0.80 0.79 0.68 0.63 0.60 0.53 0.52 0.64 0.79 0.75 0.76 0.95 0.95 0.81 0.73 0.70 0.62
0.63 0.47 0.47 0.25 0.07 0.08 0.19 0.23 0.16 0.24 0.51 0.47 0.56 0.63 0.75 1.00 1.20 1.21 0.93 0.67 0.71 0.89 0.99 0.73 0.75 0.68 0.73 0.75 0.91 0.97 0.95 0.90 0.86 0.73 0.79 0.92 1.09 1.14 0.98 0.92 0.97 0.96 0.95 0.99
0.68 0.64 0.47 0.21 0.07 0.01 0.04 0.21 0.09 0.17 0.64 0.63 0.64 0.57 0.63 0.82 1.32 1.18 0.76 0.39 0.29 0.27 0.40 0.73 0.72 0.56 0.58 0.67 0.62 0.83 1.08 1.11 1.22 1.34 1.48 1.58 1.52 1.40 1.47 1.46 1.35 1.29 1.26 1.19
0.65 0.73 0.25 0.02 0.06 0.06 0.31 0.44 0.10 0.07 0.22 0.64 0.84 1.02 1.04 0.98 1.09 0.85 0.61 0.19 0.06 0.03 0.02 0.05 0.29 0.48 0.44 0.45 0.64 0.67 0.72 1.02 1.09 1.27 1.38 1.32 1.49 1.59 1.73 1.97 2.09 1.98 1.85 1.57
0.72 0.79 0.39 0.05 0.19 0.38 0.38 0.15 0.09 0.07 0.05 0.14 0.44 0.52 0.42 0.66 0.64 0.48 0.29 0.06 0.00 0.00 0.00 0.01 0.01 0.05 0.19 0.29 0.35 0.43 0.50 0.46 0.58 0.67 0.71 0.92 0.95 1.03 1.16 1.21 1.35 1.46 1.49 1.60
0.31 0.35 0.39 0.27 0.32 0.32 0.16 0.18 0.16 0.10 0.15 0.27 0.31 0.29 0.37 0.32 0.16 0.06 0.04 0.02 0.01 0.01 0.02 0.02 0.01 0.02 0.04 0.07 0.10 0.13 0.18 0.24 0.30 0.37 0.50 0.55 0.63 0.71 0.69 0.72 0.72 0.77 0.83 0.91
0.63 0.68 0.50 0.58 0.37 0.13 0.11 0.21 0.22 0.16 0.11 0.11 0.10 0.11 0.15 0.13 0.07 0.04 0.03 0.02 0.02 0.02 0.01 0.01 0.01 0.01 0.04 0.03 0.04 0.05 0.07 0.08 0.10 0.18 0.26 0.27 0.35 0.42 0.52 0.60 0.64 0.71 0.77 0.80
1.21 0.93 0.69 0.81 0.75 0.58 0.40 0.18 0.15 0.17 0.14 0.11 0.08 0.08 0.08 0.07 0.06 0.04 0.01 0.01 0.01 0.02 0.02 0.00 0.02 0.02 0.04 0.05 0.05 0.06 0.06 0.09 0.10 0.09 0.11 0.12 0.18 0.34 0.42 0.68 0.81 0.89 1.08 1.16
1.55 1.14 0.95 0.95 0.51 0.36 0.31 0.27 0.15 0.07 0.04 0.03 0.02 0.01 0.02 0.04 0.04 0.02 0.03 0.03 0.02 0.02 0.01 0.02 0.02 0.03 0.03 0.02 0.04 0.07 0.11 0.13 0.21 0.22 0.21 0.21 0.24 0.33 0.47 0.53 0.54 0.57 0.71 0.83
0.69 0.96 0.89 0.73 0.47 0.26 0.17 0.09 0.03 0.01 0.01 0.02 0.03 0.04 0.08 0.08 0.06 0.06 0.04 0.03 0.03 0.03 0.04 0.04 0.05 0.07 0.13 0.18 0.16 0.18 0.21 0.23 0.21 0.23 0.30 0.35 0.40 0.45 0.60 0.80 0.87 1.02 1.14 1.22
0.41 0.47 0.37 0.23 0.15 0.07 0.02 0.01 0.02 0.01 0.01 0.02 0.08 0.09 0.07 0.07 0.06 0.04 0.04 0.02 0.02 0.02 0.04 0.06 0.13 0.26 0.40 0.54 0.62 0.74 0.87 0.98 0.99 1.07 1.05 0.99 0.95 0.95 0.98 1.03 1.13 1.38 1.39 1.25
0.22 0.19 0.20 0.14 0.05 0.03 0.02 0.03 0.04 0.07 0.13 0.17 0.13 0.07 0.04 0.04 0.04 0.04 0.03 0.02 0.02 0.03 0.07 0.12 0.19 0.31 0.40 0.47 0.60 0.70 0.77 0.90 0.95 1.00 1.02 0.97 0.93 0.92 0.90 0.87 0.81 0.84 0.79 0.73
0.03 0.05 0.09 0.09 0.07 0.04 0.04 0.06 0.13 0.29 0.25 0.15 0.08 0.04 0.04 0.05 0.05 0.05 0.06 0.05 0.06 0.11 0.13 0.15 0.21 0.32 0.25 0.22 0.28 0.38 0.53 0.68 0.65 0.72 0.81 0.79 0.79 0.76 0.75 0.72 0.70 0.68 0.64 0.70
0.01 0.02 0.04 0.10 0.13 0.15 0.22 0.29 0.31 0.27 0.17 0.09 0.09 0.08 0.06 0.05 0.06 0.09 0.12 0.14 0.13 0.17 0.18 0.22 0.42 0.44 0.45 0.52 0.58 0.76 0.83 0.87 0.82 0.76 0.79 0.78 0.72 0.65 0.59 0.55 0.53 0.51 0.57 0.56
0.02 0.03 0.07 0.15 0.31 0.32 0.22 0.16 0.13 0.12 0.14 0.16 0.16 0.14 0.17 0.20 0.27 0.32 0.37 0.31 0.26 0.31 0.51 0.70 0.75 0.75 0.76 0.78 0.74 0.75 0.73 0.72 0.66 0.65 0.62 0.59 0.55 0.51 0.52 0.52 0.48 0.43 0.39 0.30
0.12 0.19 0.23 0.26 0.23 0.18 0.15 0.15 0.17 0.18 0.21 0.24 0.28 0.39 0.45 0.54 0.56 0.67 0.70 0.66 0.74 0.76 1.12 0.98 0.84 0.74 0.74 0.73 0.57 0.53 0.51 0.46 0.42 0.43 0.43 0.42 0.40 0.41 0.40 0.34 0.30 0.26 0.26 0.27
0.21 0.17 0.15 0.13 0.10 0.11 0.15 0.21 0.24 0.32 0.45 0.46 0.55 0.70 0.84 1.05 1.03 1.02 0.89 0.91 0.98 1.03 0.96 0.78 0.55 0.44 0.42 0.37 0.29 0.27 0.29 0.32 0.30 0.31 0.28 0.26 0.25 0.25 0.23 0.22 0.26 0.31 0.29 0.27
0.44 0.41 0.41 0.41 0.48 0.55 0.62 0.73 0.68 0.88 1.13 1.07 0.90 0.98 0.97 1.09 1.01 0.94 0.76 0.72 0.83 0.63 0.47 0.39 0.32 0.28 0.21 0.18 0.16 0.16 0.17 0.18 0.20 0.21 0.24 0.28 0.27 0.28 0.33 0.33 0.30 0.29 0.29 0.27
0.62 0.62 0.72 0.75 0.68 0.84 0.96 0.93 0.78 0.79 0.80 0.78 0.77 0.76 0.66 0.75 0.66 0.56 0.52 0.48 0.52 0.38 0.27 0.22 0.19 0.13 0.10 0.10 0.12 0.14 0.14 0.18 0.23 0.24 0.28 0.33 0.37 0.35 0.30 0.25 0.24 0.24 0.23 0.23
0.64 0.60 0.60 0.62 0.57 0.63 0.68 0.65 0.67 0.55 0.56 0.58 0.58 0.58 0.48 0.49 0.46 0.35 0.37 0.35 0.23 0.19 0.15 0.14 0.11 0.07 0.07 0.12 0.14 0.17 0.20 0.25 0.29 0.31 0.31 0.28 0.28 0.27 0.24 0.21 0.19 0.20 0.21 0.21
0.60 0.58 0.61 0.61 0.45 0.31 0.40 0.57 0.45 0.42 0.37 0.36 0.34 0.31 0.23 0.20 0.26 0.20 0.17 0.15 0.10 0.09 0.08 0.08 0.08 0.06 0.10 0.19 0.21 0.25 0.29 0.29 0.23 0.24 0.24 0.22 0.22 0.21 0.21 0.19 0.17 0.17 0.18 0.19
0.53 0.53 0.54 0.49 0.38 0.44 0.39 0.38 0.26 0.25 0.17 0.16 0.15 0.13 0.10 0.09 0.17 0.15 0.08 0.07 0.07 0.11 0.13 0.10 0.10 0.11 0.22 0.24 0.24 0.24 0.26 0.26 0.22 0.23 0.22 0.22 0.21 0.21 0.21 0.20 0.20 0.20 0.20 0.19
0.42 0.40 0.42 0.38 0.37 0.32 0.27 0.18 0.17 0.17 0.12 0.13 0.18 0.16 0.14 0.12 0.11 0.11 0.11 0.12 0.11 0.11 0.18 0.21 0.22 0.23 0.25 0.25 0.26 0.25 0.25 0.20 0.18 0.20 0.22 0.21 0.21 0.21 0.21 0.19 0.19 0.20 0.22 0.22
0.36 0.34 0.26 0.20 0.19 0.18 0.16 0.17 0.16 0.18 0.19 0.18 0.22 0.22 0.18 0.18 0.15 0.15 0.17 0.19 0.20 0.22 0.27 0.29 0.24 0.22 0.22 0.22 0.22 0.20 0.20 0.19 0.19 0.19 0.20 0.21 0.22 0.22 0.22 0.22 0.22 0.21 0.20 0.20

GFSNGP_prec_precacc_162.txt.gz
Total_Precipitation_Accumulation
0.57 0.68 0.59 1.03 1.03 1.05 0.84 0.77 1.00 1.00 0.57 0.52 0.45 0.84 0.90 0.64 0.64 0.54 0.72 0.53 0.41 0.38 0.43 0.67 0.87 0.90 0.94 0.89 0.97 1.11 1.28 1.10 0.81 0.87 0.81 0.68 0.68 0.76 0.73 0.61 0.77 1.33 1.40 1.56
1.40 0.88 0.40 0.88 1.05 0.89 0.61 0.70 0.74 0.47 0.49 0.43 0.33 0.51 0.90 0.80 0.75 0.50 0.51 0.74 0.60 0.50 0.39 0.39 0.40 0.48 0.55 0.55 0.60 0.61 0.64 0.67 0.72 0.60 0.65 0.66 0.51 0.53 0.37 0.32 0.41 0.61 0.73 0.86
0.63 0.46 0.28 0.62 0.82 0.48 0.28 0.24 0.25 0.25 0.33 0.29 0.35 0.46 0.62 0.72 0.74 0.56 0.52 0.65 0.76 0.81 0.73 0.73 0.62 0.59 0.56 0.58 0.54 0.56 0.56 0.54 0.48 0.59 0.62 0.68 0.63 0.60 0.65 0.71 0.66 0.57 0.60 0.63
0.54 0.37 0.78 0.90 0.38 0.23 0.21 0.30 0.17 0.17 0.24 0.29 0.40 0.50 0.47 0.54 0.84 0.73 0.70 0.87 0.91 0.91 0.88 0.88 0.74 0.69 0.77 0.80 0.79 0.68 0.63 0.60 0.53 0.52 0.64 0.79 0.75 0.76 0.95 0.95 0.81 0.73 0.70 0.62
0.63 0.47 0.47 0.25 0.07 0.08 0.19 0.23 0.16 0.24 0.51 0.48 0.56 0.63 0.76 1.00 1.20 1.21 0.93 0.67 0.71 0.89 0.99 0.73 0.75 0.68 0.73 0.75 0.91 0.97 0.95 0.90 0.86 0.73 0.79 0.92 1.09 1.14 0.98 0.92 0.97 0.96 0.95 0.99
0.68 0.67 0.47 0.21 0.07 0.01 0.04 0.21 0.09 0.17 0.64 0.63 0.64 0.57 0.63 0.82 1.32 1.18 0.76 0.39 0.29 0.27 0.40 0.73 0.72 0.56 0.58 0.67 0.62 0.83 1.08 1.11 1.22 1.34 1.48 1.58 1.52 1.40 1.47 1.46 1.35 1.29 1.26 1.19
0.65 0.76 0.25 0.02 0.06 0.06 0.31 0.44 0.11 0.07 0.22 0.64 0.84 1.02 1.04 0.98 1.09 0.85 0.61 0.19 0.06 0.03 0.02 0.05 0.29 0.48 0.44 0.45 0.64 0.67 0.72 1.02 1.09 1.27 1.38 1.32 1.49 1.59 1.73 1.97 2.09 1.98 1.85 1.57
0.80 0.89 0.41 0.05 0.19 0.39 0.39 0.16 0.09 0.07 0.05 0.14 0.44 0.52 0.42 0.66 0.64 0.48 0.29 0.06 0.00 0.00 0.00 0.01 0.01 0.05 0.19 0.29 0.35 0.43 0.50 0.46 0.58 0.67 0.71 0.92 0.95 1.03 1.16 1.21 1.35 1.46 1.49 1.60
0.35 0.36 0.39 0.27 0.32 0.34 0.17 0.18 0.16 0.10 0.15 0.27 0.31 0.29 0.37 0.32 0.16 0.06 0.04 0.02 0.01 0.01 0.02 0.02 0.01 0.02 0.04 0.07 0.10 0.13 0.18 0.24 0.30 0.37 0.50 0.55 0.63 0.71 0.69 0.72 0.72 0.77 0.83 0.91
0.76 0.73 0.52 0.59 0.38 0.13 0.12 0.21 0.22 0.16 0.11 0.11 0.10 0.11 0.15 0.13 0.07 0.04 0.03 0.02 0.02 0.02 0.01 0.01 0.01 0.01 0.04 0.03 0.04 0.05 0.07 0.08 0.10 0.18 0.26 0.27 0.35 0.42 0.52 0.60 0.64 0.71 0.77 0.80
1.26 1.03 0.77 0.87 0.79 0.60 0.40 0.18 0.15 0.17 0.14 0.11 0.08 0.08 0.08 0.07 0.06 0.04 0.01 0.01 0.01 0.02 0.02 0.00 0.02 0.02 0.04 0.05 0.05 0.06 0.06 0.09 0.10 0.09 0.11 0.12 0.18 0.34 0.42 0.68 0.81 0.89 1.08 1.16
1.58 1.22 0.98 0.96 0.52 0.36 0.31 0.27 0.15 0.07 0.04 0.03 0.02 0.01 0.02 0.04 0.04 0.02 0.03 0.03 0.02 0.02 0.01 0.02 0.02 0.03 0.03 0.02 0.04 0.07 0.11 0.13 0.21 0.22 0.21 0.21 0.24 0.33 0.47 0.53 0.54 0.57 0.71 0.83
0.74 1.03 0.95 0.75 0.48 0.28 0.18 0.09 0.03 0.01 0.01 0.02 0.03 0.04 0.08 0.08 0.06 0.06 0.04 0.03 0.03 0.03 0.04 0.04 0.05 0.07 0.13 0.18 0.16 0.18 0.21 0.23 0.21 0.23 0.30 0.35 0.40 0.45 0.60 0.80 0.87 1.02 1.14 1.22
0.41 0.48 0.37 0.23 0.16 0.07 0.02 0.01 0.02 0.01 0.01 0.02 0.08 0.09 0.07 0.07 0.06 0.04 0.04 0.02 0.02 0.02 0.04 0.06 0.13 0.26 0.40 0.54 0.62 0.74 0.87 0.98 0.99 1.07 1.05 0.99 0.95 0.95 0.98 1.03 1.13 1.38 1.39 1.25
0.22 0.19 0.20 0.14 0.05 0.03 0.02 0.03 0.04 0.07 0.13 0.17 0.13 0.07 0.04 0.04 0.04 0.04 0.03 0.02 0.02 0.03 0.07 0.12 0.19 0.31 0.40 0.47 0.60 0.70 0.77 0.90 0.95 1.00 1.02 0.97 0.93 0.92 0.90 0.87 0.81 0.84 0.79 0.73
0.03 0.06 0.09 0.10 0.07 0.04 0.04 0.06 0.13 0.29 0.25 0.15 0.08 0.04 0.04 0.05 0.05 0.05 0.06 0.05 0.06 0.11 0.13 0.15 0.21 0.32 0.25 0.22 0.28 0.38 0.53 0.68 0.65 0.72 0.81 0.79 0.79 0.76 0.75 0.72 0.70 0.68 0.64 0.70
0.02 0.02 0.04 0.10 0.13 0.15 0.22 0.29 0.31 0.27 0.17 0.09 0.09 0.08 0.06 0.05 0.06 0.09 0.12 0.14 0.13 0.17 0.18 0.22 0.42 0.44 0.45 0.52 0.58 0.76 0.83 0.87 0.82 0.76 0.79 0.78 0.72 0.65 0.59 0.55 0.53 0.51 0.57 0.56
0.03 0.04 0.07 0.15 0.31 0.32 0.22 0.16 0.13 0.12 0.14 0.16 0.16 0.14 0.17 0.20 0.27 0.32 0.37 0.31 0.26 0.31 0.51 0.70 0.75 0.75 0.76 0.78 0.74 0.75 0.73 0.72 0.66 0.65 0.62 0.59 0.55 0.51 0.52 0.52 0.49 0.43 0.40 0.31
0.12 0.19 0.23 0.26 0.23 0.18 0.15 0.15 0.17 0.18 0.21 0.24 0.28 0.39 0.45 0.54 0.56 0.67 0.70 0.66 0.74 0.76 1.12 0.98 0.84 0.74 0.74 0.73 0.57 0.53 0.51 0.46 0.42 0.43 0.43 0.42 0.40 0.41 0.40 0.34 0.30 0.26 0.27 0.28
0.21 0.17 0.15 0.13 0.10 0.11 0.15 0.21 0.24 0.32 0.45 0.46 0.55 0.70 0.84 1.05 1.03 1.02 0.89 0.91 0.98 1.03 0.96 0.78 0.55 0.44 0.42 0.37 0.29 0.27 0.29 0.32 0.30 0.31 0.28 0.26 0.25 0.25 0.24 0.23 0.27 0.31 0.30 0.28
0.44 0.41 0.41 0.41 0.48 0.55 0.62 0.73 0.68 0.88 1.13 1.07 0.90 0.98 0.97 1.09 1.01 0.94 0.76 0.72 0.83 0.63 0.47 0.39 0.32 0.28 0.21 0.18 0.16 0.16 0.17 0.18 0.20 0.21 0.24 0.28 0.27 0.28 0.34 0.34 0.31 0.29 0.30 0.27
0.62 0.62 0.72 0.75 0.68 0.84 0.96 0.93 0.78 0.79 0.80 0.78 0.77 0.76 0.66 0.75 0.66 0.56 0.52 0.48 0.52 0.38 0.27 0.22 0.19 0.13 0.10 0.10 0.12 0.14 0.14 0.18 0.23 0.24 0.29 0.33 0.37 0.36 0.31 0.26 0.25 0.24 0.23 0.23
0.64 0.60 0.60 0.62 0.57 0.63 0.68 0.65 0.67 0.55 0.56 0.58 0.58 0.58 0.48 0.49 0.46 0.35 0.37 0.35 0.23 0.19 0.15 0.14 0.11 0.07 0.07 0.12 0.14 0.17 0.20 0.25 0.29 0.31 0.32 0.29 0.28 0.27 0.24 0.21 0.19 0.20 0.21 0.21
0.60 0.58 0.61 0.61 0.45 0.31 0.40 0.57 0.45 0.42 0.37 0.36 0.34 0.31 0.23 0.20 0.26 0.20 0.17 0.15 0.10 0.09 0.08 0.08 0.08 0.06 0.10 0.19 0.21 0.25 0.29 0.29 0.24 0.24 0.24 0.22 0.22 0.21 0.21 0.19 0.17 0.17 0.18 0.19
0.53 0.53 0.54 0.49 0.38 0.44 0.39 0.38 0.26 0.25 0.17 0.16 0.15 0.13 0.10 0.09 0.17 0.15 0.08 0.07 0.07 0.11 0.13 0.10 0.10 0.11 0.22 0.24 0.25 0.24 0.26 0.26 0.22 0.23 0.22 0.22 0.21 0.21 0.21 0.20 0.20 0.20 0.20 0.19
0.42 0.40 0.42 0.38 0.37 0.32 0.27 0.18 0.17 0.17 0.12 0.13 0.18 0.16 0.14 0.12 0.11 0.11 0.11 0.12 0.11 0.11 0.19 0.21 0.22 0.23 0.26 0.26 0.27 0.25 0.25 0.20 0.18 0.20 0.22 0.21 0.21 0.21 0.21 0.19 0.19 0.20 0.22 0.22
0.36 0.34 0.26 0.20 0.19 0.18 0.16 0.17 0.16 0.18 0.19 0.18 0.22 0.22 0.19 0.18 0.16 0.16 0.17 0.20 0.21 0.23 0.28 0.30 0.25 0.23 0.23 0.23 0.22 0.20 0.20 0.19 0.19 0.19 0.20 0.21 0.22 0.22 0.22 0.22 0.22 0.21 0.20 0.20

GFSNGP_prec_precacc_165.txt.gz
Total_Precipitation_Accumulation
0.57 0.68 0.59 1.03 1.03 1.05 0.84 0.77 1.00 1.00 0.57 0.52 0.45 0.84 0.90 0.64 0.64 0.54 0.72 0.53 0.41 0.38 0.43 0.67 0.87 0.90 0.94 0.89 0.97 1.11 1.28 1.10 0.81 0.87 0.81 0.68 0.68 0.76 0.73 0.61 0.77 1.33 1.40 1.56
1.40 0.88 0.40 0.88 1.05 0.89 0.61 0.70 0.74 0.47 0.49 0.43 0.33 0.51 0.90 0.80 0.75 0.50 0.51 0.74 0.60 0.50 0.39 0.39 0.40 0.48 0.55 0.55 0.60 0.61 0.64 0.67 0.72 0.60 0.65 0.66 0.51 0.53 0.37 0.32 0.41 0.61 0.73 0.86
0.63 0.46 0.28 0.62 0.82 0.48 0.28 0.24 0.25 0.25 0.33 0.29 0.35 0.46 0.62 0.72 0.74 0.56 0.52 0.65 0.76 0.81 0.73 0.73 0.62 0.59 0.56 0.58 0.54 0.56 0.56 0.54 0.48 0.59 0.62 0.68 0.63 0.60 0.65 0.71 0.66 0.57 0.60 0.63
0.54 0.37 0.78 0.90 0.38 0.23 0.21 0.30 0.17 0.17 0.24 0.29 0.40 0.50 0.47 0.54 0.84 0.73 0.70 0.87 0.91 0.91 0.88 0.88 0.74 0.69 0.77 0.80 0.79 0.68 0.63 0.60 0.53 0.52 0.64 0.79 0.75 0.76 0.95 0.95 0.81 0.73 0.70 0.62
0.63 0.48 0.47 0.25 0.07 0.08 0.19 0.23 0.16 0.24 0.51 0.48 0.56 0.63 0.76 1.00 1.20 1.21 0.93 0.67 0.71 0.89 0.99 0.73 0.75 0.68 0.73 0.75 0.91 0.97 0.95 0.90 0.86 0.73 0.79 0.92 1.09 1.14 0.98 0.92 0.97 0.96 0.95 0.99
0.68 0.67 0.48 0.21 0.07 0.01 0.04 0.21 0.09 0.17 0.64 0.63 0.64 0.57 0.63 0.82 1.32 1.18 0.76 0.39 0.29 0.27 0.40 0.73 0.72 0.56 0.58 0.67 0.62 0.83 1.08 1.11 1.22 1.34 1.48 1.58 1.52 1.40 1.47 1.46 1.35 1.29 1.26 1.19
0.65 0.78 0.25 0.02 0.06 0.06 0.31 0.44 0.11 0.08 0.22 0.64 0.84 1.02 1.04 0.98 1.09 0.85 0.61 0.19 0.06 0.03 0.02 0.05 0.29 0.48 0.44 0.45 0.64 0.67 0.72 1.02 1.09 1.27 1.38 1.32 1.49 1.59 1.73 1.97 2.09 1.98 1.85 1.57
0.81 0.92 0.42 0.05 0.19 0.39 0.39 0.16 0.10 0.08 0.06 0.14 0.44 0.52 0.42 0.66 0.64 0.48 0.29 0.06 0.00 0.00 0.00 0.01 0.01 0.05 0.19 0.29 0.35 0.43 0.50 0.46 0.58 0.67 0.71 0.92 0.95 1.03 1.16 1.21 1.35 1.46 1.49 1.60
0.53 0.45 0.41 0.27 0.32 0.35 0.18 0.18 0.16 0.11 0.15 0.27 0.31 0.29 0.37 0.32 0.16 0.06 0.04 0.02 0.01 0.01 0.02 0.02 0.01 0.02 0.04 0.07 0.10 0.13 0.18 0.24 0.30 0.37 0.50 0.55 0.63 0.71 0.69 0.72 0.72 0.77 0.83 0.91
0.76 0.75 0.55 0.60 0.38 0.13 0.12 0.21 0.22 0.16 0.11 0.11 0.10 0.11 0.15 0.13 0.07 0.04 0.03 0.02 0.02 0.02 0.01 0.01 0.01 0.01 0.04 0.03 0.04 0.05 0.07 0.08 0.10 0.18 0.26 0.27 0.35 0.42 0.52 0.60 0.64 0.71 0.77 0.80
1.26 1.04 0.78 0.88 0.81 0.62 0.41 0.18 0.15 0.17 0.14 0.11 0.08 0.08 0.08 0.07 0.06 0.04 0.01 0.01 0.01 0.02 0.02 0.00 0.02 0.02 0.04 0.05 0.05 0.06 0.06 0.09 0.10 0.09 0.11 0.12 0.18 0.34 0.42 0.68 0.81 0.89 1.08 1.16
1.59 1.23 0.98 0.97 0.52 0.37 0.32 0.27 0.15 0.07 0.04 0.03 0.02 0.01 0.02 0.04 0.04 0.02 0.03 0.03 0.02 0.02 0.01 0.02 0.02 0.03 0.03 0.02 0.04 0.07 0.11 0.13 0.21 0.22 0.21 0.21 0.24 0.33 0.47 0.53 0.54 0.57 0.71 0.83
0.74 1.03 0.96 0.75 0.48 0.28 0.20 0.10 0.03 0.01 0.01 0.02 0.03 0.04 0.08 0.08 0.06 0.06 0.04 0.03 0.03 0.03 0.04 0.04 0.05 0.07 0.13 0.18 0.16 0.18 0.21 0.23 0.21 0.23 0.30 0.35 0.40 0.45 0.60 0.80 0.87 1.02 1.14 1.22
0.41 0.48 0.37 0.23 0.16 0.07 0.03 0.02 0.02 0.01 0.01 0.02 0.08 0.09 0.07 0.07 0.06 0.04 0.04 0.02 0.02 0.02 0.04 0.06 0.13 0.26 0.40 0.54 0.62 0.74 0.87 0.98 0.99 1.07 1.05 0.99 0.95 0.95 0.98 1.03 1.13 1.38 1.39 1.25
0.22 0.19 0.20 0.14 0.05 0.03 0.02 0.03 0.04 0.07 0.13 0.17 0.13 0.07 0.04 0.04 0.04 0.04 0.03 0.02 0.02 0.03 0.07 0.12 0.19 0.31 0.40 0.47 0.60 0.70 0.77 0.90 0.95 1.00 1.02 0.97 0.93 0.92 0.90 0.87 0.81 0.84 0.79 0.73
0.03 0.06 0.09 0.10 0.07 0.04 0.04 0.06 0.13 0.29 0.25 0.15 0.08 0.04 0.04 0.05 0.05 0.05 0.06 0.05 0.06 0.11 0.13 0.15 0.21 0.32 0.25 0.22 0.28 0.38 0.53 0.68 0.65 0.72 0.81 0.79 0.79 0.76 0.75 0.72 0.70 0.68 0.64 0.70
0.02 0.03 0.05 0.10 0.13 0.16 0.23 0.29 0.31 0.27 0.17 0.09 0.09 0.08 0.06 0.05 0.06 0.09 0.12 0.14 0.13 0.17 0.18 0.22 0.42 0.44 0.45 0.52 0.58 0.76 0.83 0.87 0.82 0.76 0.79 0.78 0.72 0.65 0.59 0.55 0.53 0.51 0.57 0.56
0.03 0.04 0.08 0.16 0.34 0.38 0.26 0.16 0.13 0.12 0.14 0.16 0.16 0.14 0.17 0.20 0.27 0.32 0.37 0.31 0.26 0.31 0.51 0.70 0.75 0.75 0.76 0.78 0.74 0.75 0.73 0.72 0.66 0.65 0.62 0.59 0.55 0.51 0.52 0.52 0.49 0.44 0.40 0.31
0.12 0.19 0.23 0.26 0.23 0.18 0.15 0.15 0.17 0.18 0.21 0.24 0.28 0.39 0.45 0.54 0.56 0.67 0.70 0.66 0.74 0.76 1.12 0.98 0.84 0.74 0.74 0.73 0.57 0.53 0.51 0.46 0.42 0.43 0.43 0.42 0.40 0.41 0.40 0.34 0.30 0.27 0.28 0.28
0.21 0.17 0.15 0.13 0.10 0.11 0.15 0.21 0.24 0.32 0.45 0.46 0.55 0.70 0.84 1.05 1.03 1.02 0.89 0.91 0.98 1.03 0.96 0.78 0.55 0.44 0.42 0.37 0.29 0.27 0.29 0.32 0.30 0.31 0.28 0.26 0.25 0.25 0.24 0.23 0.27 0.32 0.31 0.29
0.44 0.41 0.41 0.41 0.48 0.55 0.62 0.73 0.68 0.88 1.13 1.07 0.90 0.98 0.97 1.09 1.01 0.94 0.76 0.72 0.83 0.63 0.47 0.39 0.32 0.28 0.21 0.18 0.16 0.16 0.17 0.18 0.20 0.21 0.24 0.28 0.27 0.29 0.34 0.34 0.31 0.30 0.31 0.28
0.62 0.62 0.72 0.75 0.68 0.84 0.96 0.93 0.78 0.79 0.80 0.78 0.77 0.76 0.66 0.75 0.66 0.56 0.52 0.48 0.52 0.38 0.27 0.22 0.19 0.13 0.10 0.10 0.12 0.14 0.14 0.18 0.23 0.24 0.29 0.33 0.38 0.36 0.31 0.26 0.26 0.25 0.24 0.23
0.64 0.60 0.60 0.62 0.57 0.63 0.68 0.65 0.67 0.55 0.56 0.58 0.58 0.58 0.48 0.49 0.46 0.35 0.37 0.35 0.23 0.19 0.15 0.14 0.11 0.07 0.07 0.12 0.14 0.17 0.20 0.25 0.29 0.31 0.32 0.29 0.29 0.28 0.25 0.22 0.19 0.20 0.21 0.21
0.60 0.58 0.61 0.61 0.45 0.31 0.40 0.57 0.45 0.42 0.37 0.36 0.34 0.31 0.23 0.20 0.26 0.20 0.17 0.15 0.10 0.09 0.08 0.08 0.08 0.06 0.10 0.19 0.21 0.25 0.29 0.29 0.24 0.24 0.25 0.22 0.22 0.21 0.21 0.19 0.17 0.17 0.18 0.19
0.53 0.53 0.54 0.49 0.38 0.44 0.39 0.38 0.26 0.25 0.17 0.16 0.15 0.13 0.10 0.09 0.17 0.15 0.08 0.07 0.07 0.11 0.13 0.10 0.10 0.11 0.22 0.24 0.25 0.24 0.26 0.27 0.22 0.23 0.22 0.22 0.21 0.21 0.21 0.20 0.20 0.20 0.20 0.19
0.42 0.40 0.42 0.38 0.37 0.32 0.27 0.18 0.17 0.17 0.12 0.13 0.18 0.16 0.14 0.12 0.11 0.11 0.11 0.12 0.11 0.11 0.19 0.21 0.22 0.23 0.26 0.27 0.27 0.25 0.25 0.20 0.18 0.20 0.22 0.21 0.21 0.21 0.21 0.19 0.19 0.20 0.22 0.22
0.36 0.34 0.26 0.20 0.19 0.18 0.16 0.17 0.16 0.18 0.19 0.18 0.22 0.23 0.19 0.18 0.16 0.16 0.18 0.20 0.22 0.23 0.28 0.30 0.25 0.23 0.23 0.24 0.23 0.21 0.20 0.19 0.19 0.19 0.20 0.21 0.22 0.22 0.22 0.22 0.22 0.21 0.20 0.20